This is the latest recevied weather packets stored in our database for station/object DL1VED. If no packets are shown the sender has not sent any weather packets the latest 10 day(s).
| Time | Temp. | Humidity | Pressure | Rain* | Wind** | Luminosity | Snow |
|---|---|---|---|---|---|---|---|
| 1777688952 | 10° C | 60% | 1021 hPa | 0 mm | - | - | - |
| 1777688058 | 10° C | 59% | 1021 hPa | 0 mm | - | - | - |
| 1777688053 | 10° C | 59% | 1021 hPa | 0 mm | - | - | - |
| 1777687153 | 10.56° C | 100% | 1021.2 hPa | 0 mm | - | - | - |
| 1777686253 | 10.56° C | 58% | 1021.3 hPa | 0 mm | - | - | - |
| 1777685353 | 10.56° C | 57% | 1021.1 hPa | 0 mm | - | - | - |
| 1777684453 | 11.11° C | 57% | 1021.2 hPa | 0 mm | - | - | - |
| 1777683557 | 11.11° C | 55% | 1021.2 hPa | 0 mm | - | - | - |
| 1777683553 | 11.11° C | 55% | 1021.2 hPa | 0 mm | - | - | - |
| 1777682659 | 11.11° C | 55% | 1021.4 hPa | 0 mm | - | - | - |
| 1777682653 | 11.11° C | 55% | 1021.4 hPa | 0 mm | - | - | - |
| 1777681753 | 11.67° C | 55% | 1021.4 hPa | 0 mm | - | - | - |
| 1777680853 | 11.67° C | 53% | 1021.6 hPa | 0 mm | - | - | - |
| 1777679953 | 11.67° C | 54% | 1021.7 hPa | 0 mm | - | - | - |
| 1777679053 | 11.67° C | 52% | 1021.8 hPa | 0 mm | - | - | - |
| 1777678153 | 12.22° C | 51% | 1021.9 hPa | 0 mm | - | - | - |
| 1777677253 | 12.22° C | 50% | 1022 hPa | 0 mm | - | - | - |
| 1777676353 | 12.22° C | 49% | 1022 hPa | 0 mm | - | - | - |
| 1777675453 | 12.78° C | 49% | 1022.2 hPa | 0 mm | - | - | - |
| 1777674553 | 12.78° C | 49% | 1022.2 hPa | 0 mm | - | - | - |
| 1777673653 | 12.78° C | 49% | 1022.2 hPa | 0 mm | - | - | - |
| 1777672753 | 13.33° C | 47% | 1022.2 hPa | 0 mm | - | - | - |
| 1777671853 | 13.33° C | 47% | 1022.2 hPa | 0 mm | - | - | - |
| 1777670953 | 13.33° C | 47% | 1022.2 hPa | 0 mm | - | - | - |
| 1777670053 | 13.89° C | 46% | 1022.3 hPa | 0 mm | - | - | - |
* Rain latest hour (hover to see other rain measurements)
** Current wind speed in m/s (hover to see current wind gust speed)